Temp
5 6 7 8 8 6 8 10 11 10 10 10 11 10 11 10 10 10 10 9 9 9 9 9 9 8 8 8 8 8 8 8
4 5 6 7 7 7 7 9 10 10 10 10 10 11 11 11 10 10 10 10 9 9 9 9 9 9 8 8 8 8 8 8
2 4 5 6 5 7 6 8 9 9 9 10 10 10 10 10 10 10 10 10 10 9 9 9 9 9 9 8 8 8 8 8
2 2 4 5 5 7 5 7 8 9 9 9 9 9 9 9 9 10 10 10 9 9 9 9 9 9 9 9 8 8 8 8
1 2 2 4 5 4 5 5 8 8 7 8 9 9 9 9 9 10 9 9 9 9 9 9 9 9 9 9 8 8 8 8
-0 1 1 3 4 4 5 5 6 8 8 8 8 8 8 8 8 9 9 9 9 9 9 9 9 8 9 9 9 9 8 8
-4 -2 2 4 5 5 7 6 6 4 6 7 8 8 8 8 8 8 9 9 9 9 9 9 9 9 9 9 8 8 8 8
-4 -1 2 4 4 5 5 6 5 5 5 7 7 7 8 8 8 9 9 8 8 8 9 9 9 9 9 9 9 8 8 8
-3 -2 -0 1 3 4 5 5 6 6 5 5 7 7 7 7 8 8 8 9 9 8 8 9 9 8 8 8 8 8 8 9
-6 -5 -3 -1 1 2 4 5 5 6 5 6 5 6 7 8 8 8 8 8 8 8 9 9 8 8 8 8 8 9 8 8
-6 -6 -5 -5 -4 -1 1 3 4 5 5 5 5 5 5 7 7 8 8 8 8 8 9 9 9 9 9 9 9 9 9 9
-5 -6 -6 -5 -5 -5 -3 -0 1 3 4 5 4 5 5 6 7 7 8 8 8 8 8 8 9 9 9 9 9 9 9 9
-5 -4 -5 -6 -5 -5 -5 -5 -2 0 1 1 1 2 3 5 5 6 7 7 7 7 7 7 7 7 8 6 6 7 7 7
-7 -6 -5 -5 -4 -5 -5 -5 -5 -5 -3 -1 1 1 2 2 3 5 6 6 6 6 6 7 6 6 5 5 5 5 6 5
-6 -6 -7 -7 -5 -6 -5 -5 -5 -5 -5 -4 -4 -2 0 2 2 3 3 3 3 4 5 5 4 4 4 5 4 5 6 5
-6 -7 -7 -7 -7 -5 -4 -5 -5 -5 -4 -4 -4 -4 -4 -3 -1 1 0 2 2 3 3 4 4 4 4 5 4 4 5 5
-7 -7 -7 -8 -8 -6 -5 -5 -4 -4 -5 -6 -5 -4 -3 -4 -4 -4 -3 -2 -2 -0 1 2 3 3 3 4 2 4 4 4
-8 -8 -8 -8 -8 -7 -6 -5 -5 -5 -5 -4 -4 -4 -5 -6 -4 -3 -3 -3 -3 -3 -2 -2 -1 -1 0 1 0 2 2 3
-8 -8 -6 -6 -6 -6 -6 -6 -6 -6 -5 -5 -5 -4 -4 -4 -4 -4 -5 -4 -4 -3 -3 -3 -2 -2 -3 -2 -1 -0 1 1
Height
3106 3111 3117 3120 3122 3119 3118 3121 3124 3128 3135 3139 3141 3146 3150 3153 3155 3157 3159 3163 3166 3168 3171 3172 3174 3176 3177 3179 3181 3182 3184 3185
3099 3102 3106 3111 3112 3117 3112 3114 3117 3122 3126 3130 3134 3137 3144 3147 3150 3152 3154 3159 3162 3164 3166 3167 3169 3171 3173 3175 3177 3177 3178 3181
3088 3091 3099 3102 3102 3107 3109 3108 3110 3115 3119 3124 3128 3133 3137 3140 3144 3146 3150 3154 3157 3159 3160 3161 3164 3166 3168 3169 3172 3174 3175 3176
3082 3084 3087 3093 3097 3098 3101 3102 3104 3107 3113 3116 3121 3125 3130 3132 3134 3139 3143 3147 3149 3151 3154 3158 3158 3160 3162 3164 3165 3168 3169 3171
3079 3079 3080 3081 3085 3089 3093 3095 3097 3099 3105 3108 3112 3116 3121 3126 3130 3134 3136 3139 3142 3145 3148 3151 3153 3153 3156 3157 3160 3161 3164 3165
3069 3069 3069 3067 3068 3074 3079 3087 3091 3093 3097 3101 3105 3110 3115 3119 3121 3125 3128 3131 3134 3137 3139 3142 3144 3147 3147 3152 3152 3155 3156 3159
3059 3057 3058 3060 3066 3071 3073 3079 3086 3090 3089 3093 3098 3102 3106 3111 3113 3117 3120 3123 3126 3127 3131 3133 3136 3138 3141 3142 3145 3146 3149 3151
3058 3052 3052 3056 3061 3065 3070 3073 3074 3077 3081 3084 3089 3093 3097 3101 3104 3106 3112 3114 3116 3119 3122 3125 3127 3131 3133 3135 3136 3139 3140 3142
3054 3051 3048 3049 3053 3057 3061 3065 3070 3073 3074 3075 3079 3082 3087 3091 3094 3098 3102 3106 3108 3111 3113 3115 3120 3120 3123 3124 3125 3127 3130 3131
3051 3050 3048 3047 3047 3048 3053 3057 3062 3065 3068 3071 3073 3075 3077 3081 3083 3087 3091 3096 3099 3100 3102 3107 3111 3111 3113 3115 3116 3118 3120 3122
3053 3049 3046 3046 3044 3045 3048 3050 3053 3057 3060 3062 3064 3067 3069 3071 3075 3078 3082 3086 3089 3092 3093 3096 3100 3102 3104 3106 3107 3109 3111 3112
3056 3051 3049 3046 3046 3044 3044 3046 3048 3050 3052 3054 3056 3061 3063 3063 3066 3068 3071 3075 3078 3081 3084 3086 3088 3090 3092 3094 3096 3098 3099 3101
3060 3056 3053 3049 3047 3045 3044 3044 3044 3045 3047 3048 3051 3052 3054 3057 3058 3057 3060 3064 3067 3069 3073 3075 3078 3080 3081 3082 3084 3087 3089 3090
3064 3058 3054 3051 3050 3048 3045 3044 3043 3042 3041 3042 3041 3042 3042 3045 3046 3047 3050 3053 3055 3058 3062 3063 3067 3067 3070 3070 3073 3076 3077 3077
3067 3063 3058 3053 3051 3049 3047 3043 3041 3040 3039 3038 3038 3038 3038 3038 3039 3041 3042 3043 3046 3047 3048 3050 3053 3057 3058 3058 3062 3063 3066 3066
3067 3064 3061 3057 3052 3048 3046 3044 3041 3038 3036 3034 3034 3034 3034 3032 3032 3033 3034 3035 3035 3037 3040 3040 3040 3044 3045 3047 3048 3051 3053 3053
3067 3064 3061 3058 3054 3047 3044 3041 3038 3037 3035 3032 3030 3028 3028 3028 3028 3027 3027 3025 3026 3026 3027 3029 3032 3031 3029 3032 3034 3037 3042 3041
3063 3060 3056 3052 3048 3044 3041 3038 3034 3031 3029 3028 3027 3026 3023 3023 3021 3020 3019 3019 3018 3019 3020 3021 3022 3020 3020 3021 3022 3026 3029 3030
3059 3055 3052 3047 3042 3038 3035 3034 3031 3025 3023 3020 3020 3019 3019 3017 3015 3013 3012 3011 3011 3012 3012 3012 3011 3013 3014 3015 3014 3015 3016 3018
Wind_Speed
22 20 22 25 24 28 37 43 46 44 44 43 42 41 38 35 34 33 32 29 29 28 27 28 28 28 29 29 28 27 26 25
20 22 21 23 29 27 35 41 48 46 45 49 48 45 41 39 38 36 35 30 30 31 30 31 30 30 30 29 30 30 29 26
23 21 23 25 28 33 33 38 45 47 48 49 50 49 44 43 39 39 37 33 32 33 35 35 32 31 32 31 30 29 29 29
19 20 18 23 26 32 31 38 41 45 46 50 50 50 49 48 47 43 39 37 38 39 39 34 34 33 33 32 32 30 30 28
12 16 17 27 25 21 27 32 35 39 42 44 49 51 50 49 46 44 43 42 41 40 39 37 37 39 36 36 34 33 31 32
10 9 15 34 36 29 35 29 32 36 41 41 44 44 44 42 44 44 46 46 45 43 43 40 41 40 41 37 38 36 35 34
10 9 28 34 41 41 37 32 29 28 33 38 43 43 42 42 40 39 41 42 44 47 46 46 44 43 42 42 40 41 38 38
2 12 23 28 29 35 38 36 32 29 30 36 38 41 43 42 42 44 43 37 37 38 42 45 47 45 44 44 46 44 43 43
18 9 8 15 26 29 39 38 35 35 38 37 40 38 37 37 39 42 45 45 44 42 43 40 48 43 42 43 43 43 43 46
28 25 20 17 12 21 28 38 40 36 33 36 38 40 40 43 47 46 45 45 44 44 46 46 45 46 45 45 47 46 46 45
21 24 22 21 20 17 14 24 33 38 38 38 37 38 36 38 40 42 43 43 44 44 45 45 43 44 43 46 47 46 47 50
16 19 16 17 16 16 15 15 18 28 32 36 46 50 43 41 41 42 45 46 46 46 45 44 46 47 46 48 49 49 50 48
20 12 17 6 9 11 12 11 11 15 20 26 28 31 35 46 44 44 46 48 48 48 48 46 46 47 47 45 40 47 44 43
23 28 22 18 16 17 7 4 5 4 9 16 21 26 32 36 38 42 45 47 49 49 47 51 40 47 40 41 39 37 39 36
20 21 21 27 22 21 22 22 13 10 5 6 11 18 24 25 26 29 36 41 40 41 45 45 46 41 40 41 47 40 47 42
19 19 19 21 26 25 17 18 22 24 19 20 13 12 13 19 25 32 29 33 35 43 44 38 42 45 45 42 42 47 50 47
18 17 18 18 21 27 27 29 24 21 21 24 25 30 24 22 21 20 24 26 28 30 33 38 48 40 37 42 50 44 54 49
19 20 20 23 25 30 30 28 30 31 27 24 23 22 27 26 30 30 28 27 27 29 30 32 36 35 39 41 35 46 45 48
20 23 29 32 35 36 34 28 28 30 31 32 28 26 25 23 25 28 28 30 32 37 34 30 31 29 33 31 34 39 42 42
Wind_Direction
251 242 241 241 239 246 240 234 228 229 229 230 231 232 233 232 232 233 232 230 233 236 238 242 244 247 248 249 254 257 259 261
266 252 233 239 226 234 248 235 234 230 229 229 232 231 234 235 237 238 239 234 237 241 241 242 246 247 253 256 255 257 260 263
265 233 246 240 244 222 240 243 239 235 232 232 232 238 234 238 239 242 242 242 240 243 244 245 247 249 250 253 257 261 263 266
272 264 226 223 252 234 231 241 243 240 234 233 234 235 237 239 240 239 241 242 241 241 246 247 251 250 253 252 256 255 260 260
274 257 250 212 206 228 230 236 237 240 232 233 234 236 237 240 244 246 245 244 245 247 248 250 250 255 252 256 254 256 254 259
225 216 209 223 208 208 214 210 235 235 233 229 231 233 238 241 242 244 245 246 247 248 249 248 248 250 256 254 259 257 259 255
49 222 228 241 234 232 221 220 223 235 233 227 229 232 234 234 239 245 247 248 252 253 249 249 249 248 249 255 254 259 258 260
312 236 223 234 243 239 232 226 214 204 231 234 227 230 233 234 235 240 246 245 248 253 253 250 252 253 254 254 257 257 258 259
92 115 188 213 230 236 229 226 224 231 223 224 229 226 229 232 233 235 240 247 247 245 250 249 254 251 252 253 254 256 257 258
85 88 104 112 171 222 225 228 226 226 233 239 233 234 230 231 232 231 232 238 243 251 247 243 245 249 251 252 254 256 259 261
51 71 97 84 97 122 186 218 223 226 227 230 235 232 235 234 234 237 238 240 245 249 253 255 252 251 251 253 254 255 256 260
1 20 64 90 94 97 111 147 205 222 221 226 230 241 245 239 237 238 239 241 244 248 251 256 257 258 258 258 258 258 261 262
13 338 334 25 89 112 104 97 152 184 205 216 224 228 232 238 246 241 243 244 247 249 249 251 251 254 257 258 253 260 261 259
1 3 351 350 321 326 341 82 102 148 186 208 214 225 236 243 244 247 246 246 247 249 248 253 246 253 252 252 248 251 253 252
354 353 351 346 349 345 334 318 306 313 283 234 225 222 224 224 226 235 238 241 240 251 250 248 249 249 248 236 247 249 256 244
343 343 344 337 329 333 333 328 329 320 301 303 272 270 249 230 228 231 237 243 243 240 243 241 237 239 237 243 240 251 240 240
334 334 328 323 325 324 326 322 319 312 313 311 299 296 287 269 268 254 242 233 235 237 237 236 241 236 234 236 241 251 249 249
332 330 327 325 324 322 323 321 316 315 309 301 300 298 299 294 279 275 258 258 252 243 240 243 245 247 248 243 245 247 252 250
323 319 317 319 318 316 319 322 318 314 311 309 301 294 292 287 283 286 287 288 276 264 259 257 251 254 254 255 250 247 248 248